OK1JIL-13 Weather Reports


Display with metric or nautical units.
time (UTC)temp
F
wind
direction
speed
MPH
gust
MPH
rain 1hr
in
rain 24hr
in
rain mn
in
humidity
%
barometer
mb
20260505025951 64 0.0 0.0 0.00 0.00 0.00 41 1011.6
20260505024951 63 0.0 0.0 0.00 0.00 0.00 44 1011.9
20260505023951 62 0.0 0.0 0.00 0.00 0.00 45 1012.0
20260505022951 60 0.0 0.0 0.00 0.00 0.00 50 1012.3
20260505021951 59 0.0 0.0 0.00 0.00 0.00 53 1012.4
20260505020951 59 0.0 0.0 0.00 0.00 0.00 53 1012.5
20260505015951 58 0.0 0.0 0.00 0.00 0.00 53 1012.7
20260505014952 58 0.0 0.0 0.00 0.00 0.00 56 1012.8
20260505013951 58 0.0 0.0 0.00 0.00 0.00 59 1013.6
20260505012951 59 0.0 0.0 0.00 0.00 0.00 54 1013.6
20260505011951 59 0.0 0.0 0.00 0.00 0.00 53 1013.5
20260505010951 58 0.0 0.0 0.00 0.00 0.00 59 1013.4
20260505005951 57 0.0 0.0 0.00 0.00 0.00 60 1013.6
20260505004955 60 0.0 0.0 0.00 0.00 0.00 54 1013.9
20260505003951 64 0.0 0.0 0.00 0.00 0.00 41 1013.8
20260505002951 65 0.0 0.0 0.00 0.00 0.00 40 1013.8
20260505001951 66 0.0 0.0 0.00 0.00 0.00 38 1013.7
20260505000954 65 0.0 0.0 0.00 0.00 0.00 40 1013.9
20260504235951 64 0.0 0.0 0.00 0.00 0.00 41 1013.9
20260504234950 63 0.0 0.0 0.00 0.00 0.00 41 1013.9
20260504233950 65 0.0 0.0 0.00 0.00 0.00 38 1013.9
20260504232950 66 0.0 0.0 0.00 0.00 0.00 36 1014.0
20260504231950 65 0.0 0.0 0.00 0.00 0.00 36 1013.9
20260504230950 67 0.0 0.0 0.00 0.00 0.00 34 1014.0
20260504225950 65 0.0 0.0 0.00 0.00 0.00 35 1014.1
20260504224950 66 0.0 0.0 0.00 0.00 0.00 34 1014.2
20260504223950 67 0.0 0.0 0.00 0.00 0.00 33 1014.3
20260504222950 69 0.0 0.0 0.00 0.00 0.00 30 1014.3
20260504221950 69 0.0 0.0 0.00 0.00 0.00 31 1014.4
20260504220950 68 0.0 0.0 0.00 0.00 0.00 33 1014.6
20260504215950 69 0.0 0.0 0.00 0.00 0.00 33 1014.6
20260504214950 69 0.0 0.0 0.00 0.00 0.00 34 1014.6
20260504213950 69 0.0 0.0 0.00 0.00 0.00 30 1014.7
20260504212950 69 0.0 0.0 0.00 0.00 0.00 30 1014.7
20260504211950 69 0.0 0.0 0.00 0.00 0.00 31 1014.8
20260504210950 69 0.0 0.0 0.00 0.00 0.00 32 1014.8
20260504205950 69 0.0 0.0 0.00 0.00 0.00 33 1014.8
20260504204950 68 0.0 0.0 0.00 0.00 0.00 33 1015.0
20260504203950 68 0.0 0.0 0.00 0.00 0.00 34 1014.9
20260504202950 68 0.0 0.0 0.00 0.00 0.00 37 1014.9
20260504201950 68 0.0 0.0 0.00 0.00 0.00 37 1015.0
20260504200950 69 0.0 0.0 0.00 0.00 0.00 36 1015.0
20260504195950 69 0.0 0.0 0.00 0.00 0.00 35 1015.1
20260504193950 68 0.0 0.0 0.00 0.00 0.00 36 1015.1
20260504192950 68 0.0 0.0 0.00 0.00 0.00 37 1015.1
20260504191950 68 0.0 0.0 0.00 0.00 0.00 37 1015.0
20260504190950 69 0.0 0.0 0.00 0.00 0.00 36 1015.0
20260504185950 69 0.0 0.0 0.00 0.00 0.00 36 1015.0
20260504184950 68 0.0 0.0 0.00 0.00 0.00 36 1014.9
20260504183950 69 0.0 0.0 0.00 0.00 0.00 36 1014.9
20260504182950 69 0.0 0.0 0.00 0.00 0.00 36 1014.9
20260504181950 68 0.0 0.0 0.00 0.00 0.00 38 1015.0
20260504180951 67 0.0 0.0 0.00 0.00 0.00 39 1014.9
20260504175951 67 0.0 0.0 0.00 0.00 0.00 39 1014.9
20260504174950 68 0.0 0.0 0.00 0.00 0.00 39 1014.9
20260504173950 68 0.0 0.0 0.00 0.00 0.00 39 1014.9
20260504172950 68 0.0 0.0 0.00 0.00 0.00 39 1014.9
20260504171950 68 0.0 0.0 0.00 0.00 0.00 39 1014.8
20260504170950 69 0.0 0.0 0.00 0.00 0.00 39 1014.8
20260504150950 71 0.0 0.0 0.00 0.00 0.00 33 1015.1
20260504140949 73 0.0 0.0 0.00 0.00 0.00 31 1015.3
20260504081948 66 0.0 0.0 0.00 0.00 0.00 35 1016.4
20260504080948 60 0.0 0.0 0.00 0.00 0.00 43 1016.3
20260504045948 54 0.0 0.0 0.00 0.00 0.00 42 1015.8
20260504044948 54 0.0 0.0 0.00 0.00 0.00 44 1015.9
20260504043948 55 0.0 0.0 0.00 0.00 0.00 43 1015.8
20260504042948 55 0.0 0.0 0.00 0.00 0.00 43 1015.9
20260504041948 55 0.0 0.0 0.00 0.00 0.00 43 1015.9
20260504040948 54 0.0 0.0 0.00 0.00 0.00 42 1015.9
20260504035948 54 0.0 0.0 0.00 0.00 0.00 43 1015.8
20260504034948 54 0.0 0.0 0.00 0.00 0.00 42 1015.9
20260504033948 54 0.0 0.0 0.00 0.00 0.00 42 1015.8
20260504032948 54 0.0 0.0 0.00 0.00 0.00 42 1015.8
20260504031948 54 0.0 0.0 0.00 0.00 0.00 42 1015.8
20260504030948 54 0.0 0.0 0.00 0.00 0.00 42 1015.8